[Iaude] MPEC E177: 2024 EY3 [a=0.93,e=0.37,i=5.5,H=24.6]
    mpec at cfa.harvard.edu 
    mpec at cfa.harvard.edu
       
    Wed Mar 13 19:56:54 EDT 2024
    
    
  
M.P.E.C. 2024-E177                               Issued 2024 March 13, 23:55 UT
     The Minor Planet Electronic Circulars contain information on unusual
         minor planets, routine data on comets and natural satellites,
         and occasional editorial announcements.  They are published
    on behalf of Division F of the International Astronomical Union by the
          Minor Planet Center, Smithsonian Astrophysical Observatory,
                          Cambridge, MA 02138, U.S.A.
			  
             Prepared using the Tamkin Foundation Computer Network
                              MPC at CFA.HARVARD.EDU
            URL https://www.minorplanetcenter.net/    ISSN 1523-6714
                                    2024 EY3                                    
Observations:
     K24E03Y*1C2024 03 12.41364414 17 47.213+31 06 19.94         20.14GVEE177G96
     K24E03Y 1C2024 03 12.41883114 17 49.225+31 07 05.88         19.65GVEE177G96
     K24E03Y 1C2024 03 12.42920414 17 53.401+31 08 39.44         20.42GVEE177G96
     K24E03Y  C2024 03 12.44804514 18 00.394+31 11 23.23         20.5 GVEE177H01
     K24E03Y  C2024 03 12.45228114 18 02.093+31 12 00.95         20.4 GVEE177H01
     K24E03Y  C2024 03 12.46484114 18 07.165+31 13 52.65         20.0 GVEE177H01
     K24E03Y  C2024 03 12.46953614 18 09.080+31 14 34.48         20.2 GVEE177H01
     K24E03Y mC2024 03 12.50169814 18 22.741+31 19 25.36         20.21GVEE177I52
     K24E03Y mC2024 03 12.50213414 18 22.882+31 19 29.28         20.10GVEE177I52
     K24E03Y mC2024 03 12.50255914 18 23.065+31 19 32.95         20.18GVEE177I52
     K24E03Y mC2024 03 12.50298314 18 23.234+31 19 36.91         20.28GVEE177I52
     K24E03Y hC2024 03 12.90985614 21 52.25 +32 22 15.2          20.0 GVEE177L01
     K24E03Y hC2024 03 12.91295314 21 53.82 +32 22 46.8          19.8 GVEE177L01
     K24E03Y KC2024 03 12.91583814 21 55.19 +32 23 15.4          20.4 GVEE177L01
     K24E03Y KC2024 03 12.91757114 21 56.04 +32 23 32.7          20.0 GVEE177L01
     K24E03Y KB2024 03 12.93438614 22 05.33 +32 26 11.7          19.7 GXEE177958
     K24E03Y KB2024 03 12.93802814 22 07.07 +32 26 47.2          20.5 GXEE177I93
     K24E03Y KB2024 03 12.94003914 22 08.20 +32 27 08.2          19.6 GXEE177958
     K24E03Y KB2024 03 12.94308914 22 09.53 +32 27 38.6                XEE177I93
     K24E03Y KB2024 03 12.94564014 22 10.96 +32 28 05.3          19.8 GXEE177958
     K24E03Y KB2024 03 12.94799514 22 11.98 +32 28 27.5          20.1 GXEE177I93
     K24E03Y KC2024 03 12.96612414 22 19.846+32 31 39.72         20.6 GVEE177598
     K24E03Y KC2024 03 12.96822714 22 20.868+32 32 01.03         20.1 GVEE177598
     K24E03Y KC2024 03 12.97025314 22 21.890+32 32 21.23         20.2 GVEE177598
     K24E03Y 1C2024 03 13.12046 14 23 33.91 +32 57 12.2          20.2 VXEE177033
     K24E03Y 1C2024 03 13.12097 14 23 34.15 +32 57 17.6          20.5 VXEE177033
     K24E03Y 1C2024 03 13.12149 14 23 34.44 +32 57 22.4          20.2 VXEE177033
     K24E03Y 1C2024 03 13.12201 14 23 34.65 +32 57 27.9          20.2 VXEE177033
     K24E03Y 1C2024 03 13.12252 14 23 34.95 +32 57 33.3          20.9 VXEE177033
     K24E03Y KC2024 03 13.89359 14 31 22.42 +35 15 41.3                VEE177104
     K24E03Y KC2024 03 13.91366 14 31 35.21 +35 19 41.2          20.3 GVEE177104
     K24E03Y KC2024 03 13.92081514 31 39.29 +35 21 06.0          19.8 GXEE177595
     K24E03Y KC2024 03 13.93074214 31 45.51 +35 23 04.8          19.9 GXEE177595
     K24E03Y KC2024 03 13.94723 14 31 56.47 +35 26 25.4          19.8 GXEE177K83
     K24E03Y KC2024 03 13.96012 14 32 04.57 +35 28 59.8          19.8 GXEE177K83
Observer details:
033 Karl Schwarzschild Observatory, Tautenburg.  Observers S. Melnikov, C.
    Hogner, F. Ludwig, M. Hartmann, B. Stecklum.  Measurer B. Stecklum.
    1.34-m f/3 Schmidt + CCD.
104 San Marcello Pistoiese.  Observers P. Bacci, M. Maestripieri.  Measurer P.
    Bacci.  0.60-m f/4.0 reflector + CCD.
595 Farra d'Isonzo.  Observer E. Pettarin.  0.61-m f/4.5 reflector + CCD.
598 Loiano.  Observer A. Carbognani.  1.52-m f/4.75 Reflector + CCD.
958 Observatoire de Dax.  Observer P. Dupouy.  0.50-m f/4.5 Reflector + CMO.
G96 Mt. Lemmon Survey.  Observer D. Rankin.  Measurers T. Beuden, V. F.
    Carvajal, D. Fay, J. B. Fazekas, D. C. Fuls, A. R. Gibbs, A. D. Grauer, H.
    Groeller, J. K. Hogan, R. A. Kowalski, S. M. Larson, G. J. Leonard, D.
    Rankin, R. L. Seaman, F. C. Shelly, K. W. Wierzchos.  1.5-m reflector +
    10K CCD.
H01 Magdalena Ridge Observatory, Socorro.  Observers W. H. Ryan, E. V. Ryan.
    Measurer W. H. Ryan.  2.4-m f/8.9 Ritchey-Chretien + CCD.
I52 Steward Observatory, Mt. Lemmon Station.  Observer H. Groeller.  Measurers
    T. Beuden, V. F. Carvajal, D. Fay, J. B. Fazekas, D. C. Fuls, A. R. Gibbs,
    A. D. Grauer, H. Groeller, J. K. Hogan, R. A. Kowalski, S. M. Larson, G.
    J. Leonard, D. Rankin, R. L. Seaman, F. C. Shelly, K. W. Wierzchos.  1.0-m
    prime focus + CCD.
I93 St Pardon de Conques.  Observer F. Losse.  0.40-m f/3.7 reflector + CCD.
K83 Beppe Forti Astronomical Observatory, Montelupo.  Observers M. Tombelli,
    M. Iozzi, F. Cheli.  Measurers M. Tombelli, F. Bernardi.  0.40-m f/8
    Ritchey-Chretien + CCD.
L01 Visnjan Observatory, Tican.  Observers K. Korlevic, I. Lyon.  Measurer K.
    Korlevic.  1.0-m f/2.9 reflector + CCD.
Orbital elements:
2024 EY3                                                 Earth MOID = 0.0306 AU
Epoch 2024 Mar. 31.0 TT = JDT 2460400.5                 Veres                   
M 292.03966              (2000.0)            P               Q                  
n   1.09751813     Peri.  281.97358     +0.50735492     +0.86120063             
a   0.9308112      Node    18.60870     -0.74891336     +0.45810838             
e   0.3655561      Incl.    5.46756     -0.42628601     +0.22015945             
P   0.90           H   24.61          G   0.15           U   7                  
Residuals in seconds of arc
240312 G96  0.3+  0.1+    240312 L01  0.5+  0.5+    240313 033  0.2-  0.1-
240312 G96  0.4-  0.5-    240312 L01  0.0   0.2+    240313 033  0.3-  0.2+
240312 G96  0.1+  0.3+    240312 L01  0.1+  0.1+    240313 033  0.1+  0.2-
240312 H01  0.0   0.1-    240312 958  0.6-  0.1+    240313 033  0.5-  0.1+
240312 H01  0.1-  0.1-    240312 I93  0.5+  0.2-    240313 033  0.2+  0.4+
240312 H01  0.2-  0.1-    240312 958  0.3+  0.3-    240313 104  0.2+  0.3-
240312 H01  0.1-  0.0     240312 I93  0.0   0.3+    240313 104  0.1+  0.1-
240312 I52  0.4+  0.0     240312 958  0.2+  0.4+    240313 595  0.0   0.3+
240312 I52  0.1-  0.0     240312 I93  0.4+  0.2-    240313 595  0.7-  0.5+
240312 I52  0.0   0.1-    240312 598  0.2-  0.2-    240313 K83  0.3-  1.1+
240312 I52  0.0   0.1+    240312 598  0.0   0.0     240313 K83  0.6-  0.9+
240312 L01  0.3-  0.2-    240312 598  0.6+  0.1-
Ephemeris:
2024 EY3                 a,e,i = 0.93, 0.37, 5                   q = 0.5905
Date    TT    R. A. (2000) Decl.     Delta      r    Elong.  Phase     V
2024 02 12    13 10 57.1 +11 31 16   0.2687  1.1730   128.4    41.3    23.7
...
2024 02 27    13 32 19.2 +15 34 21   0.1587  1.1109   136.7    37.7    22.4
...
2024 03 06    13 48 52.9 +20 57 57   0.1043  1.0718   137.9    38.4    21.4
...
2024 03 12    14 14 46.2 +30 06 56   0.06632 1.0397   132.6    44.7    20.5
2024 03 13    14 22 31.1 +32 37 51   0.06042 1.0341   130.4    47.0    20.4
2024 03 14    14 32 23.6 +35 37 23   0.05474 1.0285   127.6    50.0    20.2
...
2024 03 20    18 44 07.4 +62 19 15   0.03105 0.9935    84.9    93.3    20.4
...
2024 03 28    00 16 16.8 +21 33 28   0.05756 0.9438    18.8   160.1    29.3
...
2024 04 12    00 56 37.9 +03 15 25   0.1616  0.8429     8.4   170.0
M. P. C. Staff               (C) Copyright 2024 MPC           M.P.E.C. 2024-E177
    
    
More information about the Iaude
mailing list